Powrót do katalogu

DELTA 1 R/B

AktywnyPO
NORAD 6306·ROCKET BODY·🇺🇸 United States

Wystrzelony Dec 11, 1972 z Vandenberg Space Force Base

Loading…

Następne Przeloty (najbliższe 24 godziny)

TLE

ŚwieżeSource: Space-Track

Epoka: Sep 14, 2026, 09:27 UTC

1 06306U 72097B   26257.39381709 -.00000039  00000-0 -10029-4 0  9992
2 06306  99.7884 300.5978 0270304  59.8116 313.3055 12.88500782527780

Śledź DELTA 1 R/B w czasie rzeczywistym z AllMySat

Download on the App Store